THOR ABLESTAR DEB, 350

Orbit data source: Space-Track

THOR ABLESTAR DEB, 350 is space debris in LEO originally from a launch on Thu, 29 Jun 1961 UTC launched from the Air Force Eastern Test Range (AFETR). Debris objects in space refer to the collection of defunct objects orbiting the Earth. Examples of debris include non-operational satellites, rocket bodies, and fragments generated from explosions, collisions, or faulty payload assembly.

Loading next visibility...
Identifier
350, 1961-015DQ
Orbit
LEO
Country
Flag of USUS
Related business
Manufacturer
Unknown
Mission
Spacecraft
Bus & Motor
Unknown
Mass
Unknown
Launch date (UTC)
1961-06-29 (64 years ago)
Launch vehicle
Unknown
Launch site
Air Force Eastern Test Range (AFETR)
Object type
Payload
Rocket body
Debris
Shape & HBR
Unknown shape, 0.2 m
Radar Cross Section
Medium (>0.1 m² and <1 m²)

Expand to show TLE details & history
Last TLE update: 1 day ago

TLE from 1 day ago
0 THOR ABLESTAR DEB
1 00350U 61015DQ  25348.43360322  .00000605  00000-0  28205-3 0  9997
2 00350  66.9127 343.5597 0131312 287.8711  70.8100 14.22503882336678
Epoch: 2025-12-14T10:24Z
TLE epoch observation values (Epoch: 2025-12-14T10:24:23.318Z)
Latitude
-0.00002°
Longitude
104.11595°
Altitude
789.069 km
Speed
7.475 km/s
True Right ascension
22h 54m 14s
True Declination
0° 00' 00"
Sunlit
Object was in daylight at epoch
Visualization orbit readout
Latitude
Unknown
Longitude
Unknown
Altitude
Unknown
Speed
Unknown
Apparent Right ascension
Unknown
Apparent Declination
Unknown
Sunlit
N/A
Visualization observer readout
Local Sidereal Time
17:08:46
Azimuth
Unknown
Elevation
Unknown
Doppler factor
Unknown
Orbital elements
Apogee altitude
909.711 km
Perigee altitude
720.795 km
Semi-major axis
7,193.39 km
Eccentricity
0.01313
Inclination
66.9127°
RAAN
343.5597°
Arg. of periapsis
287.8711°
True anomaly
72.23867°
Mean anomaly
70.81°
Eccentric anomaly
71.52358°
Mean motion
3.55748 °/min
Orbital period
101.2 mins
BSTAR
0.00028205
Loading maneuver chart data...
Computing Atmospheric mass density...

Documentation

Showing up to 5 results
|